Weather History for Salem, IL

Change the Weather History Date:

Monday, December 9, 2013

  Actual Average Record
Temperature  
Mean Temperature 26 °F -  
Max Temperature 29 °F 43 °F 64 °F (1965)
Min Temperature 23 °F 26 °F 4 °F (1977)
Degree Days  
Heating Degree Days 39    
Moisture  
Dew Point 20 °F    
Average Humidity 77    
Maximum Humidity 94    
Minimum Humidity 66    
Precipitation  
Precipitation 0.00 in - - ()
Sea Level Pressure  
Sea Level Pressure 30.23 in    
Wind  
Wind Speed 10 mph (West)    
Max Wind Speed 17 mph    
Max Gust Speed 21 mph    
Visibility 10 miles    
Events Snow    
Averages and records for this station are not official NWS values.
T = Trace of Precipitation, MM = Missing Value Source: NWS Daily Summary

Daily Weather History Graph

Daily Weather History Graph

Search for Another Location

Airport:

Trip Planner

Search our weather history database for the weather conditions in past years. The results will help you decide how hot, cold, wet, or windy it might be!

Date:

Astronomy

Dec. 09, 2013 Rise Set
Actual Time 7:02 AM CST 4:34 PM CST
Civil Twilight 6:32 AM CST 5:04 PM CST
Nautical Twilight 5:59 AM CST 5:37 PM CST
Astronomical Twilight 5:27 AM CST 6:09 PM CST
Moon 11:59 AM CST (12/9) No Moon Set
Length of Visible Light 10h 31m
Length of Day
9h 32m
Waxing Crescent, 51% of the Moon is Illuminated
Dec 9
Waxing Crescent
Dec 17
Full
Dec 25
Last Quarter
Jan 1
New
Jan 7
First Quarter

Hourly Weather History & Observations

Time (CST) Temp. Windchill Dew Point Humidity Pressure Visibility Wind Dir Wind Speed Gust Speed Precip Events Conditions
12:15 AM 29.1 °F 20.0 °F 27.5 °F 94% 30.08 in 7.0 mi WSW 10.4 mph - N/A   Overcast
12:35 AM 29.3 °F 19.6 °F 27.5 °F 93% 30.08 in 10.0 mi West 11.5 mph - N/A   Overcast
12:55 AM 29.3 °F 19.6 °F 27.3 °F 92% 30.08 in 10.0 mi West 11.5 mph - N/A   Overcast
1:15 AM 29.1 °F 18.9 °F 27.1 °F 92% 30.09 in 7.0 mi West 12.7 mph - N/A   Overcast
1:35 AM 29.3 °F 19.6 °F 27.3 °F 92% 30.10 in 7.0 mi West 11.5 mph - N/A   Overcast
1:55 AM 29.3 °F 18.6 °F 27.1 °F 92% 30.10 in 7.0 mi West 13.8 mph 18.4 mph N/A   Overcast
2:15 AM 29.3 °F 19.1 °F 26.6 °F 90% 30.10 in 10.0 mi West 12.7 mph - N/A   Overcast
2:35 AM 29.3 °F 19.6 °F 26.4 °F 89% 30.11 in 10.0 mi West 11.5 mph - N/A   Overcast
2:55 AM 29.3 °F 20.8 °F 26.4 °F 89% 30.12 in 10.0 mi West 9.2 mph - N/A   Overcast
3:15 AM 29.3 °F 20.8 °F 26.1 °F 88% 30.12 in 10.0 mi West 9.2 mph - N/A   Overcast
3:35 AM 28.8 °F 20.9 °F 25.5 °F 88% 30.12 in 10.0 mi WSW 8.1 mph - N/A   Mostly Cloudy
3:55 AM 28.4 °F 19.7 °F 25.5 °F 89% 30.13 in 10.0 mi West 9.2 mph - N/A   Clear
4:35 AM 28.0 °F 19.3 °F 24.3 °F 86% 30.13 in 10.0 mi West 9.2 mph - N/A   Clear
4:55 AM 27.9 °F 19.8 °F 24.3 °F 86% 30.14 in 10.0 mi West 8.1 mph - N/A   Mostly Cloudy
5:15 AM 29.1 °F 20.0 °F 24.4 °F 83% 30.15 in 10.0 mi WNW 10.4 mph 20.7 mph N/A   Overcast
5:35 AM 29.1 °F 18.9 °F 24.1 °F 81% 30.15 in 10.0 mi WNW 12.7 mph 20.7 mph N/A   Overcast
5:55 AM 28.9 °F 17.3 °F 23.2 °F 79% 30.16 in 10.0 mi WNW 16.1 mph 19.6 mph N/A   Overcast
6:15 AM 28.9 °F 17.3 °F 23.0 °F 78% 30.17 in 10.0 mi West 16.1 mph 19.6 mph N/A   Overcast
6:35 AM 28.4 °F 18.0 °F 22.1 °F 77% 30.18 in 10.0 mi WNW 12.7 mph 20.7 mph N/A   Overcast
6:55 AM 26.6 °F 14.3 °F 20.3 °F 77% 30.19 in 10.0 mi WNW 16.1 mph - N/A   Mostly Cloudy
7:15 AM 25.7 °F 15.1 °F 18.1 °F 73% 30.21 in 10.0 mi WNW 11.5 mph - N/A   Clear
7:35 AM 24.8 °F 16.1 °F 17.6 °F 74% 30.21 in 10.0 mi WNW 8.1 mph 16.1 mph N/A   Clear
7:55 AM 24.6 °F 16.7 °F 17.4 °F 74% 30.21 in 10.0 mi WNW 6.9 mph - N/A   Clear
8:15 AM 24.3 °F 18.4 °F 17.4 °F 75% 30.21 in 10.0 mi West 4.6 mph - N/A   Clear
8:35 AM 24.6 °F 16.7 °F 18.0 °F 76% 30.22 in 10.0 mi West 6.9 mph - N/A   Clear
8:55 AM 24.8 °F 16.9 °F 18.1 °F 76% 30.23 in 10.0 mi West 6.9 mph - N/A   Clear
9:15 AM 26.1 °F 15.6 °F 19.2 °F 75% 30.25 in 10.0 mi WSW 11.5 mph - N/A   Clear
9:35 AM 25.7 °F 15.1 °F 17.6 °F 71% 30.26 in 10.0 mi West 11.5 mph - N/A   Clear
9:55 AM 26.4 °F 15.0 °F 17.1 °F 68% 30.28 in 10.0 mi West 13.8 mph - N/A   Clear
10:15 AM 26.6 °F 14.7 °F 18.3 °F 71% 30.30 in 10.0 mi WNW 15.0 mph 20.7 mph N/A   Clear
10:35 AM 26.6 °F 15.2 °F 17.4 °F 68% 30.29 in 10.0 mi West 13.8 mph 17.3 mph N/A   Clear
10:55 AM 26.6 °F 14.7 °F 17.8 °F 69% 30.30 in 10.0 mi West 15.0 mph - N/A   Clear
11:15 AM 26.4 °F 15.0 °F 17.2 °F 68% 30.30 in 10.0 mi West 13.8 mph - N/A   Clear
11:35 AM 26.2 °F 13.8 °F 16.2 °F 66% 30.29 in 10.0 mi WNW 16.1 mph - N/A   Clear
11:55 AM 26.4 °F 13.6 °F 17.1 °F 68% 30.27 in 10.0 mi WNW 17.3 mph - N/A   Clear
12:15 PM 26.1 °F 16.2 °F 16.9 °F 68% 30.28 in 10.0 mi West 10.4 mph 19.6 mph N/A   Clear
12:35 PM 25.7 °F 14.6 °F 16.9 °F 69% 30.27 in 10.0 mi West 12.7 mph - N/A   Clear
12:55 PM 25.7 °F 14.0 °F 16.7 °F 69% 30.27 in 10.0 mi West 13.8 mph - N/A   Clear
1:15 PM 25.5 °F 13.8 °F 16.5 °F 69% 30.27 in 10.0 mi West 13.8 mph - N/A   Clear
1:35 PM 25.5 °F 15.5 °F 17.6 °F 72% 30.27 in 10.0 mi West 10.4 mph - N/A   Clear
1:55 PM 25.2 °F 13.9 °F 17.1 °F 71% 30.27 in 10.0 mi West 12.7 mph - N/A   Clear
2:15 PM 25.3 °F 15.3 °F 17.6 °F 72% 30.27 in 10.0 mi West 10.4 mph - N/A   Clear
2:35 PM 25.2 °F 15.7 °F 17.6 °F 73% 30.26 in 10.0 mi West 9.2 mph - N/A   Clear
2:55 PM 25.2 °F 15.7 °F 17.6 °F 73% 30.27 in 10.0 mi West 9.2 mph - N/A   Clear
3:15 PM 25.2 °F 15.7 °F 17.2 °F 72% 30.26 in 10.0 mi West 9.2 mph - N/A   Clear
3:35 PM 25.0 °F 15.5 °F 16.7 °F 71% 30.27 in 10.0 mi West 9.2 mph - N/A   Scattered Clouds
3:55 PM 25.2 °F 16.5 °F 16.7 °F 70% 30.27 in 10.0 mi West 8.1 mph - N/A   Scattered Clouds
4:15 PM 24.8 °F 16.9 °F 17.1 °F 72% 30.28 in 10.0 mi West 6.9 mph - N/A   Clear
4:35 PM 24.6 °F 17.7 °F 17.2 °F 74% 30.29 in 10.0 mi West 5.8 mph - N/A   Scattered Clouds
4:55 PM 24.8 °F 20.5 °F 17.4 °F 74% 30.29 in 10.0 mi West 3.5 mph - N/A   Overcast
5:15 PM 24.8 °F 17.9 °F 17.1 °F 72% 30.28 in 10.0 mi WNW 5.8 mph - N/A   Overcast
5:35 PM 24.8 °F - 17.2 °F 73% 30.28 in 10.0 mi Calm Calm - N/A   Overcast
5:55 PM 24.8 °F 20.5 °F 17.8 °F 75% 30.28 in 10.0 mi WNW 3.5 mph - N/A   Overcast
6:15 PM 24.8 °F - 17.6 °F 74% 30.27 in 10.0 mi Calm Calm - N/A   Overcast
6:35 PM 24.8 °F 20.5 °F 18.3 °F 76% 30.27 in 10.0 mi NW 3.5 mph - N/A   Overcast
6:55 PM 24.8 °F - 18.3 °F 76% 30.27 in 10.0 mi Calm Calm - N/A   Overcast
7:15 PM 24.8 °F 19.1 °F 18.3 °F 76% 30.27 in 10.0 mi WNW 4.6 mph - N/A   Overcast
7:35 PM 25.2 °F 19.5 °F 18.0 °F 74% 30.29 in 10.0 mi WNW 4.6 mph - N/A   Overcast
7:55 PM 25.2 °F - 17.8 °F 74% 30.29 in 10.0 mi Calm Calm - N/A   Overcast
8:15 PM 25.2 °F 20.9 °F 18.3 °F 75% 30.29 in 10.0 mi West 3.5 mph - N/A   Overcast
8:35 PM 25.0 °F - 18.1 °F 75% 30.27 in 10.0 mi Calm Calm - N/A   Overcast
8:55 PM 24.8 °F - 17.6 °F 74% 30.25 in 10.0 mi Calm Calm - N/A   Overcast
9:15 PM 25.0 °F - 17.6 °F 74% 30.26 in 10.0 mi Calm Calm - N/A   Overcast
9:35 PM 25.2 °F - 17.4 °F 72% 30.26 in 10.0 mi Calm Calm - N/A   Overcast
9:55 PM 25.2 °F - 17.2 °F 72% 30.26 in 10.0 mi Calm Calm - N/A   Overcast
10:15 PM 25.2 °F - 18.0 °F 74% 30.27 in 10.0 mi Calm Calm - N/A   Overcast
10:35 PM 24.8 °F 20.5 °F 18.3 °F 76% 30.27 in 10.0 mi West 3.5 mph - N/A   Overcast
10:55 PM 24.8 °F 19.1 °F 18.3 °F 76% 30.28 in 7.0 mi West 4.6 mph - N/A Snow Light Snow
11:15 PM 24.3 °F 18.4 °F 18.9 °F 80% 30.29 in 3.0 mi West 4.6 mph - N/A Snow Light Snow
11:35 PM 23.5 °F 19.1 °F 19.4 °F 84% 30.28 in 2.5 mi West 3.5 mph - N/A Snow Light Snow
11:55 PM 23.4 °F 18.9 °F 20.1 °F 87% 30.28 in 5.0 mi West 3.5 mph - N/A Snow Light Snow